Weather History for Ocala, FL

Change the Weather History Date:

Wednesday, September 26, 2012

  Actual Average Record
Temperature  
Mean Temperature 76 °F -  
Max Temperature 89 °F 83 °F 91 °F (2005)
Min Temperature 64 °F 66 °F 60 °F (2008)
Cooling Degree Days 12    
Growing Degree Days 26 (Base 50)    
Moisture  
Dew Point 65 °F    
Average Humidity 74    
Maximum Humidity 94    
Minimum Humidity 38    
Precipitation  
Precipitation 0.00 in - - ()
Sea Level Pressure  
Sea Level Pressure 30.10 in    
Wind  
Wind Speed 2 mph (East)    
Max Wind Speed 7 mph    
Max Gust Speed -    
Visibility 10 miles    
Events      
Averages and records for this station are not official NWS values.
T = Trace of Precipitation, MM = Missing Value Source: NWS Daily Summary

Daily Weather History Graph

Daily Weather History Graph

Search for Another Location

Airport:

Trip Planner

Search our weather history database for the weather conditions in past years. The results will help you decide how hot, cold, wet, or windy it might be!

Date:

Astronomy

Sep. 26, 2012 Rise Set
Actual Time 7:19 AM EDT 7:19 PM EDT
Civil Twilight 6:55 AM EDT 7:43 PM EDT
Nautical Twilight 6:28 AM EDT 8:11 PM EDT
Astronomical Twilight 6:00 AM EDT 8:38 PM EDT
Moon 5:07 PM EDT (9/26) 3:58 AM EDT (9/26)
Length of Visible Light 12h 47m
Length of Day
12h 00m
Waxing Gibbous, 88% of the Moon is Illuminated
Sep 26
Waxing Gibbous
Sep 29
Full
Oct 8
Last Quarter
Oct 15
New
Oct 21
First Quarter

Hourly Weather History & Observations

Time (EDT) Temp. Heat Index Dew Point Humidity Pressure Visibility Wind Dir Wind Speed Gust Speed Precip Events Conditions
12:35 AM 73.4 °F - 64.4 °F 73% 30.12 in 10.0 mi NE 3.5 mph - N/A   Clear
12:55 AM 71.6 °F - 64.4 °F 78% 30.12 in 10.0 mi Calm Calm - N/A   Clear
1:15 AM 69.8 °F - 64.4 °F 83% 30.11 in 10.0 mi Calm Calm - N/A   Clear
1:35 AM 69.8 °F - 64.4 °F 83% 30.11 in 10.0 mi Calm Calm - N/A   Clear
1:55 AM 71.6 °F - 64.4 °F 78% 30.10 in 10.0 mi NNE 4.6 mph - N/A   Clear
2:15 AM 73.4 °F - 64.4 °F 73% 30.10 in 10.0 mi Calm Calm - N/A   Clear
2:35 AM 68.0 °F - 64.4 °F 88% 30.09 in 10.0 mi Calm Calm - N/A   Clear
2:55 AM 69.8 °F - 64.4 °F 83% 30.08 in 10.0 mi Calm Calm - N/A   Clear
3:15 AM 69.8 °F - 64.4 °F 83% 30.08 in 10.0 mi North 3.5 mph - N/A   Partly Cloudy
3:35 AM 71.6 °F - 64.4 °F 78% 30.08 in 10.0 mi Calm Calm - N/A   Partly Cloudy
3:55 AM 68.0 °F - 64.4 °F 88% 30.07 in 10.0 mi Calm Calm - N/A   Scattered Clouds
4:15 AM 66.2 °F - 64.4 °F 94% 30.07 in 10.0 mi Calm Calm - N/A   Scattered Clouds
4:35 AM 69.8 °F - 62.6 °F 78% 30.07 in 10.0 mi Calm Calm - N/A   Clear
4:55 AM 66.2 °F - 64.4 °F 94% 30.08 in 10.0 mi North 3.5 mph - N/A   Clear
5:15 AM 66.2 °F - 64.4 °F 94% 30.09 in 10.0 mi Calm Calm - N/A   Clear
5:35 AM 66.2 °F - 64.4 °F 94% 30.09 in 10.0 mi Calm Calm - N/A   Clear
5:55 AM 64.4 °F - 62.6 °F 94% 30.09 in 10.0 mi North 3.5 mph - N/A   Clear
6:15 AM 64.4 °F - 62.6 °F 94% 30.09 in 10.0 mi North - - N/A   Clear
6:35 AM 64.4 °F - 62.6 °F 94% 30.10 in 10.0 mi Calm Calm - N/A   Clear
6:50 AM 64.4 °F - 62.6 °F 94% 30.10 in 10.0 mi Calm Calm - N/A   Scattered Clouds
8:50 AM 71.6 °F - 66.2 °F 83% 30.13 in 10.0 mi ENE 3.5 mph - N/A   Clear
9:50 AM 78.8 °F - 69.8 °F 74% 30.14 in 10.0 mi East 4.6 mph - N/A   Clear
10:50 AM 82.4 °F 86.3 °F 69.8 °F 66% 30.14 in 10.0 mi East 4.6 mph - N/A   Scattered Clouds
11:55 AM 84.2 °F 86.6 °F 66.2 °F 55% 30.14 in 10.0 mi ESE 3.5 mph - N/A   Scattered Clouds
12:50 PM 86.0 °F 88.2 °F 66.2 °F 51% 30.13 in 10.0 mi Calm Calm - N/A   Scattered Clouds
1:50 PM 87.8 °F 88.5 °F 62.6 °F 43% 30.11 in 10.0 mi SSW 5.8 mph - N/A   Partly Cloudy
2:50 PM 87.8 °F 88.5 °F 62.6 °F 43% 30.09 in 10.0 mi SE 6.9 mph - N/A   Partly Cloudy
3:50 PM 87.8 °F 88.5 °F 62.6 °F 43% 30.07 in 10.0 mi SW 3.5 mph - N/A   Partly Cloudy
4:50 PM 87.8 °F 87.6 °F 60.8 °F 40% 30.06 in 10.0 mi South 4.6 mph - N/A   Partly Cloudy
5:50 PM 89.6 °F 89.5 °F 60.8 °F 38% 30.05 in 10.0 mi Calm Calm - N/A   Partly Cloudy
6:50 PM 82.4 °F 83.9 °F 64.4 °F 54% 30.07 in 10.0 mi Calm Calm - N/A   Partly Cloudy
7:55 PM 78.8 °F - 64.4 °F 61% 30.10 in 10.0 mi Calm Calm - N/A   Clear
8:15 PM 80.6 °F 83.2 °F 68.0 °F 65% 30.10 in 10.0 mi East 4.6 mph - N/A   Partly Cloudy
8:35 PM 80.6 °F 83.2 °F 68.0 °F 65% 30.10 in 10.0 mi ESE 4.6 mph - N/A   Clear
8:55 PM 80.6 °F 83.2 °F 68.0 °F 65% 30.11 in 10.0 mi Calm Calm - N/A   Clear
9:35 PM 78.8 °F - 69.8 °F 74% 30.13 in 10.0 mi Calm Calm - N/A   Clear
9:55 PM 78.8 °F - 69.8 °F 74% 30.14 in 10.0 mi Calm Calm - N/A   Clear
10:15 PM 77.0 °F - 69.8 °F 78% 30.15 in 10.0 mi Calm Calm - N/A   Clear
10:35 PM 77.0 °F - 69.8 °F 78% 30.15 in 10.0 mi Calm Calm - N/A   Clear
10:55 PM 77.0 °F - 69.8 °F 78% 30.15 in 10.0 mi ESE 3.5 mph - N/A   Clear
11:15 PM 75.2 °F - 69.8 °F 83% 30.15 in 10.0 mi Calm Calm - N/A   Clear
11:35 PM 73.4 °F - 69.8 °F 88% 30.14 in 10.0 mi Calm Calm - N/A   Clear